Location: Auckland
(36.8670°S, 174.7670°E)
Time: 19:09:41
(UTC+13:00)

Resurs 1-3 - Pass Details

Date: 24 January 2019
Orbit: 631 x 632 km, 98.0° (Epoch: 17 February)

Event Time Altitude Azimuth Distance (km) Brightness Sun altitude
Rises 21:50:03 0° 161° (SSE) 2,962 7.3 -13.2°
Reaches altitude 10° 21:52:21 10° 154° (SSE) 2,045 6.4 -13.5°
Maximum altitude 21:56:37 44° 81° (E) 882 3.9 -14.2°
Enters shadow 21:59:43 17° 14° (NNE) 1,596 5.2 -14.7°
